Regional Weather Roundup
Issued by NWS Newport/Morehead, NC

Current Version | Previous Version | Text Only | Print | Product List | Glossary Off
Versions: 1 2 3 4 5 6 7 8 9 10 11 12 13 14 15 16 17 18 19 20 21 22 23 24 25 26 27 28 29 30 31 32 33 34 35 36 37 38 39 40 41 42 43 44 45 46 47 48 49 50
592 ASUS42 KMHX 030413 RWRMHX WEATHER ROUNDUP FOR EASTERN NORTH CAROLINA NATIONAL WEATHER SERVICE NEWPORT/MOREHEAD CITY NC 1200 AM EDT TUE MAY 03 2016 NOTE: "FAIR" INDICATES FEW OR NO CLOUDS BELOW 12,000 FEET WITH NO SIGNIFICANT WEATHER AND/OR OBSTRUCTIONS TO VISIBILITY NCZ015>017-031-032-045>047-102-103-030500- NORTH COAST CITY SKY/WX TMP DP RH WIND PRES REMARKS EDENTON CLOUDY 71 70 97 S12 29.91F ELIZABETH CITY MOCLDY 71 67 87 S18 29.90F KITTY HAWK CLOUDY 72 68 88 SW12G21 29.92F MANTEO NOT AVBL $$ NCZ045>047-081-094-103-104-030500- CENTRAL COAST CITY SKY/WX TMP DP RH WIND PRES REMARKS FRISCO CLOUDY 71 69 93 SW10 29.97F SWANQUARTER NOT AVBL $$ NCZ095-097-098-100-101-030500- SOUTHERN COAST CITY SKY/WX TMP DP RH WIND PRES REMARKS BEAUFORT MOCLDY 72 69 90 SW15 29.97F CEDAR ISLAND NOT AVBL JACKSONVILLE MOCLDY 70 68 93 S5 29.96F PINEY ISLAND NOT AVBL WILMINGTON CLOUDY 73 69 87 SW6 29.97F $$ NCZ011>013-027>030-043-044-078>080-089-090>093-098-030500- COASTAL PLAIN CITY SKY/WX TMP DP RH WIND PRES REMARKS AHOSKIE CLOUDY 67 63 85 S7 29.89F CLINTON CLOUDY 65 65 100 S5 29.93F ELIZABETHTOWN CLOUDY 67 67 100 SE3 29.95F GOLDSBORO CLOUDY 66 66 100 S6 29.89F GREENVILLE MOCLDY 68 64 88 SW9 29.92F HAVELOCK MOCLDY 72 68 87 SW9 29.97F KENANSVILLE CLOUDY 65 64 97 CALM 29.95F KINSTON CLOUDY 67 65 95 S9 29.93F NEW BERN CLOUDY 70 67 90 S6 29.97F RICHLANDS CLOUDY 68 68 100 S6 29.96F ROCKY MOUNT CLOUDY 67 65 93 S8 29.89F WASHINGTON PTCLDY 68 65 89 S7 29.92F WHITEVILLE RAIN 72 69 90 S6 29.96F $$ AMZ130-135-150-152-154-156-158-170-250-252-270-ANZ085-086-088-633-658-670-030500- MARINE OBSERVATIONS STATION/POSITION TIME TEMP WIND PRES WAVE SWELL AIR SEA DIR/SP/G HT/PER HT/PER (UTC) (F) (DEG/KT/KT) (MB) (FT/S) (FT/S) CHESAPEAKE LIGHT 0400 67 190/ 12/ 13 1012.4 64 E VA BEACH 0350 60 54 210/ 16/ 17 1012.7 4/10 2/10 DUCK 0300 72 66 210/ 15/ 21 1013.0 2 E DUCK 0311 59 N/A 3/11 2/11 OREGON INLET 0300 72 73 200/ 18/ 20 1014.2 13E OREGON INLT 0400 61 N/A 3/ 6 2/10 HATTERAS CG 0300 71 70 210/ 10/ 15 1015.2 DIAMOND BUOY 0350 74 74 220/ 16/ 17 1014.8 4/10 2/10 CAPE LOOKOUT 0400 72 210/ 11/ 14 1014.8 BEAUFORT LAB 0300 71 69 210/ 7/ 10 1014.8 30 SE NEW RVR IN 0325 70 N/A 4/10 2/11 27 SE WRIGHTSVLE 0308 73 71 200/ 8/ 12 1015.5 5 SE WRIGHTSVLE 0308 72 70 210/ 10/ 14 1016.3 225 S CAPE HAT 0350 74 74 160/ 16/ 17 1019.1 4/10 3/10 41 SE CHARLESTON 0350 76 74 210/ 6/ 8 1015.3 3/ 9 2/ 9 $$

USA.gov is the U.S. government's official web portal to all federal, state and local government web resources and services.